[[{"header":{"parameterUnit":"m.s-1","parameterCategory":1,"la1":30.2991,"la2":30.254,"lo1":-89.0895,"lo2":-89.0444,"dy":0.0017,"dx":0.0017,"nx":28,"ny":28,"refTime":"2023-08-09T21:00:00:Z","depth":0,"parameterNumber":2,"parameterNumberName":"U-component_of_WINDS"},"data":[0,0,0,0,0,0,0,0,0,0,0,0,0,0,0,0,0,0,0,0,0,0,0,0,0,0,0,0,0,0,0,0,0,0,0,0,0,0,0,0,0,0,0,0,0,0,0,0,0,0,0,0,0,0,0,0,0,0,2.1505,2.1506,0,2.1592,2.1593,2.1594,2.1579,2.1577,2.1576,2.1574,2.1669,2.1672,2.1676,0,0,0,0,0,0,0,0,0,0,0,0,0,2.1331,2.1335,2.1505,2.1506,2.1507,2.1592,2.1593,2.1594,2.1579,2.1577,2.1576,2.1574,2.1667,2.1672,2.1677,0,0,0,0,0,0,0,0,0,0,0,0,0,2.1411,2.1336,2.1505,2.151,2.1511,2.1591,2.1593,2.1594,2.158,2.1577,2.1575,2.1573,2.1666,2.1671,2.1677,2.176,0,0,2.1695,2.1698,0,0,0,0,0,0,0,0,2.1407,2.1418,2.1508,2.151,2.1511,2.1572,2.1566,2.165,2.158,2.1554,2.1574,2.1572,2.1639,2.1647,2.1668,2.1764,2.1768,2.1696,2.1699,2.1702,2.1704,0,0,0,0,0,0,0,2.1401,2.1414,2.1539,2.1509,2.1511,2.1509,2.1518,2.1582,2.1608,2.1556,2.1555,2.1565,2.1639,2.1662,2.167,2.1769,2.1696,2.1701,2.1704,2.1707,2.1938,2.194,0,0,0,0,0,0,2.1394,2.141,2.1537,2.1542,2.1452,2.1514,2.1524,2.1555,2.1607,2.1613,2.1567,2.1564,2.1654,2.1663,2.1673,2.1773,2.1702,2.1707,2.1711,2.1935,2.1939,2.1941,0,0,0,0,0,0,2.139,2.1405,2.1533,2.1476,2.1492,2.152,2.1554,2.1558,2.1581,2.1616,2.1621,2.1586,2.1652,2.1665,2.1738,2.1776,2.171,2.1715,2.1932,2.1936,2.194,2.1973,0,0,0,0,0,0,2.1385,2.1404,2.1434,2.1476,2.1495,2.1595,2.1557,2.1561,2.1591,2.1588,2.1635,2.164,2.1651,2.1729,2.1744,2.1783,2.172,2.1929,2.1934,2.1939,2.1969,2.1978,2.1986,0,0,0,0,0,2.1379,2.1441,2.1436,2.1451,2.1533,2.1597,2.1608,2.1618,2.1594,2.1625,2.1648,2.1639,2.177,2.1737,2.1753,2.1795,2.1927,2.1933,2.1938,2.1965,2.1976,2.1985,0,0,0,0,0,0,2.1404,2.1447,2.1441,2.1518,2.1554,2.1594,2.1634,2.1629,2.1673,2.1669,2.1681,2.1692,2.1765,2.1788,2.175,2.1878,2.1845,2.1855,2.186,2.1871,2.1879,2.1872,2.1725,0,0,0,0,0,2.1418,2.1465,2.1501,2.1566,2.1583,2.1606,2.1634,2.1639,2.1677,2.1692,2.172,2.1758,2.1808,2.1841,2.1889,2.1972,2.1983,2.2009,2.2018,2.2024,2.2032,2.2078,2.2091,2.1961,2.1961,2.196,0,0,2.1449,2.1478,2.1507,2.1571,2.1599,2.1649,2.1619,2.1672,2.171,2.1701,2.177,2.1793,2.1837,2.1915,2.1951,2.1936,2.2071,2.2032,2.2037,2.2041,2.2086,2.2098,2.2109,2.1965,2.1964,2.1963,0,0,2.1529,2.1556,2.1613,2.1641,2.1684,2.1698,2.1712,2.1753,2.1767,2.1837,2.1831,2.1877,2.1963,2.1994,2.2022,2.2115,2.2109,2.2131,2.2174,2.2219,2.2229,2.2238,2.2272,2.2283,2.2139,2.2139,2.2139,0,2.1562,2.1635,2.1643,2.1697,2.1726,2.1719,2.1778,2.1806,2.1862,2.1883,2.1865,2.1972,2.2002,2.2088,2.211,2.2133,2.215,2.2125,2.2227,2.2236,2.2245,2.2277,2.2289,2.2141,2.2141,2.2141,2.214,0,2.1673,2.1724,2.1765,2.1818,2.1852,2.1908,2.1927,2.196,2.1962,2.1979,2.2052,2.2086,2.2141,2.2162,2.2165,2.2249,2.2238,2.2224,2.2191,2.2259,2.2289,2.2302,2.2144,2.2144,2.2143,2.2142,0,0,2.1771,2.1828,2.1843,2.1867,2.1914,2.1954,2.2011,2.2063,2.2091,2.2132,2.218,2.2253,2.2239,2.227,2.2277,2.2317,2.2389,2.2297,2.2299,2.2313,2.2483,2.2493,2.2507,2.2385,2.2388,2.2389,2.2479,0,2.1855,2.1953,2.1963,2.2051,2.2098,2.2093,2.2143,2.2178,2.2196,2.224,2.2261,2.2312,2.229,2.2309,2.2348,2.2372,2.2423,2.2365,2.2431,2.2433,2.2419,2.2523,2.2534,2.2617,2.2491,2.2493,2.2495,0,2.1966,2.2007,2.21,2.214,2.2161,2.2205,2.2254,2.2296,2.2336,2.2347,2.2381,2.2383,2.2444,2.2409,2.2493,2.2454,2.2481,2.2497,2.2501,2.2507,2.2467,2.2531,2.2644,2.2656,2.2513,2.2512,2.2511,0,2.2027,2.2107,2.2172,2.2193,2.2242,2.2273,2.2296,2.2333,2.2364,2.2408,2.2428,2.2479,2.2507,2.2547,2.2563,2.2536,2.2646,2.2613,2.2657,2.2656,2.2679,2.2677,2.2797,2.2699,2.2698,2.2698,2.2698,0,2.212,2.2177,2.22,2.224,2.2304,2.2316,2.238,2.2401,2.2435,2.248,2.248,2.2523,2.2542,2.2589,2.2602,2.267,2.2683,2.2693,2.2696,2.2693,2.2691,2.2711,2.2705,2.2702,2.2701,2.27,2.27,0,2.2198,2.2216,2.2287,2.2328,2.2339,2.2385,2.242,2.246,2.2478,2.2535,2.255,2.2578,2.2633,2.2653,2.2721,2.273,2.2808,2.2806,2.2793,2.2794,2.2836,2.2832,2.2971,2.299,2.288,2.2881,2.2882,0,2.2255,2.2299,2.2344,2.2373,2.2396,2.2444,2.2476,2.249,2.2523,2.2572,2.2606,2.2661,2.2704,2.2793,2.282,2.2872,2.2872,2.2917,2.2879,2.2875,2.2872,2.2868,2.2873,2.2924,2.2925,2.2926,2.2927,0,2.2355,2.2362,2.2406,2.2454,2.2491,2.2529,2.2567,2.2592,2.2612,2.2649,2.2704,2.2738,2.2807,2.2861,2.2914,2.2939,2.2937,2.2938,2.2951,2.2948,2.2938,2.2943,2.2811,2.2935,2.2934,2.2933,2.2933,2.2933,2.2424,2.2462,2.25,2.2549,2.2579,2.2614,2.2653,2.2676,2.2722,2.2777,2.2784,2.2843,2.2884,2.2955,2.2982,2.303,2.3018,2.3036,2.3041,2.3045,2.3048,2.2931,2.304,2.304,2.3039,2.3039,2.3039,0,2.2523,2.2547,2.2592,2.2644,2.2684,2.2677,2.2719,2.2752,2.2804,2.2842,2.2885,2.2949,2.3002,2.3033,2.3087,2.3119,2.312,2.3133,2.313,2.3136,2.3056,2.3039,2.3131,2.3131,2.3131,2.3131,2.3131,2.3131,2.2578,2.2643,2.2655,2.2734,2.2759,2.2815,2.284,2.2873,2.2903,2.2974,2.3017,2.3037,2.3073,2.3129,2.3178,2.3186,2.3205,2.3219,2.3227,2.3151,2.3141,2.3132,2.3116,2.3224,2.3224,2.3302,2.3303,2.3304]},{"header":{"parameterUnit":"m.s-1","parameterCategory":1,"la1":30.2991,"la2":30.254,"lo1":-89.0895,"lo2":-89.0444,"dy":0.0017,"dx":0.0017,"nx":28,"ny":28,"refTime":"2023-08-09T21:00:00:Z","depth":0,"parameterNumber":3,"parameterNumberName":"V-component_of_WINDS"},"data":[0,0,0,0,0,0,0,0,0,0,0,0,0,0,0,0,0,0,0,0,0,0,0,0,0,0,0,0,0,0,0,0,0,0,0,0,0,0,0,0,0,0,0,0,0,0,0,0,0,0,0,0,0,0,0,0,0,0,5.2642,5.2643,0,5.2675,5.2675,5.2675,5.2686,5.2686,5.2686,5.2686,5.2715,5.2716,5.2717,0,0,0,0,0,0,0,0,0,0,0,0,0,5.2586,5.2587,5.2642,5.2643,5.2643,5.2674,5.2675,5.2675,5.2686,5.2686,5.2686,5.2686,5.2715,5.2716,5.2717,0,0,0,0,0,0,0,0,0,0,0,0,0,5.2613,5.2587,5.2642,5.2652,5.2654,5.2674,5.2675,5.2675,5.2686,5.2686,5.2686,5.2686,5.2714,5.2716,5.2717,5.2729,0,0,5.2721,5.2722,0,0,0,0,0,0,0,0,5.2612,5.2615,5.265,5.2652,5.2653,5.2676,5.2666,5.2693,5.2686,5.2674,5.2686,5.2686,5.2702,5.2704,5.2711,5.273,5.2732,5.2721,5.2722,5.2723,5.2723,0,0,0,0,0,0,0,5.261,5.2614,5.2655,5.2651,5.2653,5.2654,5.2658,5.2671,5.2688,5.2675,5.2676,5.268,5.2703,5.2709,5.2711,5.2732,5.2721,5.2722,5.2723,5.2724,5.2762,5.2762,0,0,0,0,0,0,5.2607,5.2613,5.2654,5.2656,5.2632,5.2655,5.2659,5.2669,5.2688,5.2691,5.268,5.268,5.2707,5.271,5.2713,5.2727,5.2723,5.2724,5.2725,5.2762,5.2762,5.2762,0,0,0,0,0,0,5.2606,5.2611,5.2653,5.2634,5.264,5.2656,5.2667,5.267,5.2676,5.2692,5.2695,5.2684,5.2707,5.2711,5.2725,5.2729,5.2724,5.2726,5.2762,5.2762,5.2762,5.2757,0,0,0,0,0,0,5.2604,5.261,5.2616,5.2635,5.2641,5.2666,5.2667,5.267,5.2679,5.268,5.2696,5.2699,5.2707,5.2723,5.2726,5.273,5.2727,5.2761,5.2762,5.2762,5.2757,5.2758,5.2758,0,0,0,0,0,5.2602,5.2612,5.2616,5.2621,5.2649,5.2666,5.2669,5.268,5.2679,5.2685,5.2694,5.2698,5.2728,5.2724,5.2728,5.2733,5.2761,5.2762,5.2762,5.2757,5.2758,5.2758,0,0,0,0,0,0,5.2592,5.2615,5.2619,5.2636,5.2649,5.2668,5.2675,5.268,5.2692,5.2692,5.2703,5.2707,5.272,5.2728,5.2723,5.2745,5.2744,5.2746,5.2739,5.274,5.274,5.2738,5.2728,0,0,0,0,0,5.2592,5.2606,5.2624,5.2637,5.2644,5.2658,5.2666,5.2673,5.2686,5.2691,5.2702,5.2714,5.2726,5.2733,5.2745,5.2758,5.2762,5.2763,5.2764,5.2764,5.2765,5.2772,5.2773,5.2764,5.2764,5.2764,0,0,5.2592,5.2606,5.2614,5.2636,5.2647,5.2659,5.2662,5.2675,5.2684,5.2693,5.2707,5.2716,5.2729,5.2743,5.275,5.275,5.2768,5.2764,5.2764,5.2765,5.2772,5.2773,5.2774,5.2764,5.2764,5.2764,0,0,5.2598,5.261,5.2622,5.2633,5.265,5.266,5.2662,5.268,5.2686,5.2701,5.2708,5.2718,5.2738,5.2748,5.2755,5.2764,5.2768,5.2767,5.2768,5.2775,5.2776,5.2777,5.278,5.278,5.2768,5.2768,5.2768,0,5.2595,5.2615,5.2628,5.2641,5.265,5.2659,5.2671,5.268,5.2699,5.2705,5.2705,5.2731,5.274,5.2757,5.2759,5.2765,5.2767,5.2766,5.2775,5.2776,5.2777,5.2779,5.2781,5.2768,5.2768,5.2768,5.2768,0,5.2611,5.2625,5.2632,5.2652,5.2662,5.2674,5.2687,5.2695,5.2701,5.271,5.2724,5.2737,5.2751,5.2755,5.2761,5.2772,5.2771,5.2773,5.2773,5.2777,5.278,5.2781,5.2768,5.2768,5.2768,5.2768,0,0,5.2611,5.2638,5.264,5.2649,5.2669,5.2679,5.2691,5.2706,5.2713,5.2725,5.2735,5.2752,5.2754,5.2762,5.2768,5.2775,5.278,5.2776,5.2776,5.2776,5.2793,5.2791,5.2792,5.2783,5.2783,5.2784,5.2792,0,5.2619,5.2643,5.2654,5.2672,5.2685,5.2694,5.2704,5.2716,5.2725,5.2735,5.2744,5.2756,5.2758,5.2763,5.2769,5.2778,5.2784,5.2778,5.2791,5.2792,5.2788,5.2794,5.2792,5.2799,5.2793,5.2793,5.2793,0,5.2632,5.2646,5.2666,5.2684,5.2689,5.2699,5.2713,5.2724,5.2737,5.2743,5.2752,5.2758,5.277,5.2769,5.2785,5.2781,5.2787,5.2792,5.2792,5.2794,5.2793,5.2795,5.2802,5.2803,5.2795,5.2795,5.2795,0,5.263,5.2654,5.2669,5.2676,5.2697,5.2703,5.2712,5.2725,5.2734,5.2746,5.2751,5.2764,5.2771,5.278,5.2789,5.2788,5.2804,5.2804,5.2808,5.2808,5.2811,5.2811,5.2818,5.2815,5.2815,5.2815,5.2815,0,5.2638,5.265,5.2668,5.2678,5.269,5.2702,5.2714,5.2723,5.2735,5.2745,5.2753,5.2762,5.2774,5.2784,5.2791,5.2803,5.2806,5.281,5.2811,5.2809,5.2808,5.2813,5.2813,5.2815,5.2815,5.2815,5.2815,0,5.2638,5.2652,5.2668,5.2687,5.2692,5.27,5.2715,5.2724,5.2733,5.2745,5.2749,5.2762,5.2775,5.2785,5.28,5.2805,5.2817,5.2819,5.2813,5.2814,5.2817,5.2817,5.2828,5.283,5.2826,5.2826,5.2826,0,5.2643,5.2652,5.2672,5.268,5.2689,5.2701,5.271,5.2722,5.273,5.2746,5.2753,5.2766,5.2777,5.2796,5.2806,5.2818,5.282,5.2823,5.2822,5.2819,5.282,5.2819,5.282,5.2823,5.2823,5.2823,5.2823,0,5.2649,5.2655,5.2668,5.2683,5.2694,5.2706,5.2718,5.2724,5.2737,5.2746,5.276,5.2768,5.2785,5.2797,5.281,5.2818,5.2822,5.2824,5.2825,5.2823,5.2819,5.2821,5.2813,5.2823,5.2823,5.2823,5.2823,5.2823,5.2651,5.2659,5.2675,5.2689,5.27,5.2711,5.272,5.273,5.2742,5.2757,5.2763,5.2776,5.2789,5.2807,5.2814,5.2824,5.2825,5.2827,5.2827,5.2828,5.2827,5.2817,5.2826,5.2826,5.2826,5.2826,5.2826,0,5.2657,5.2667,5.268,5.2698,5.2709,5.2713,5.2727,5.2735,5.2748,5.2759,5.277,5.2785,5.2797,5.2809,5.2821,5.2827,5.2829,5.2829,5.2829,5.2831,5.2826,5.2824,5.2827,5.2827,5.2827,5.2827,5.2827,5.2827,5.2661,5.2676,5.2684,5.2703,5.2713,5.2728,5.2735,5.2745,5.2755,5.2771,5.2782,5.279,5.2801,5.2814,5.2825,5.2828,5.2832,5.2832,5.2835,5.2831,5.2831,5.2831,5.2828,5.2833,5.2833,5.2839,5.2839,5.2839]}]]